This is the latest recevied weather packets stored in our database for station/object KR4KUV. If no packets are shown the sender has not sent any weather packets the latest 10 day(s).
| Time | Temp. | Humidity | Pressure | Rain* | Wind** | Luminosity | Snow |
|---|---|---|---|---|---|---|---|
| 1787927172 | 25° C | 90% | 1019.6 hPa | 0 mm | - | 176 W/m² | - |
| 1787926872 | 25° C | 91% | 1019.7 hPa | 0 mm | - | 134 W/m² | - |
| 1787926561 | 24.44° C | 92% | 1019.5 hPa | 0 mm | - | 214 W/m² | - |
| 1787926259 | 24.44° C | 92% | 1019.5 hPa | 0 mm | - | 167 W/m² | - |
| 1787925954 | 24.44° C | 92% | 1019.4 hPa | 0 mm | - | 118 W/m² | - |
| 1787925649 | 23.89° C | 94% | 1019.3 hPa | 0 mm | - | 170 W/m² | - |
| 1787925344 | 23.89° C | 94% | 1019.5 hPa | 0 mm | - | 154 W/m² | - |
| 1787925042 | 23.89° C | 94% | 1019.3 hPa | 0 mm | - | 161 W/m² | - |
| 1787924738 | 23.33° C | 95% | 1019.4 hPa | 0 mm | - | 146 W/m² | - |
| 1787924437 | 23.33° C | 95% | 1019.5 hPa | 0 mm | - | 158 W/m² | - |
| 1787924132 | 23.33° C | 96% | 1019.3 hPa | 0 mm | - | 146 W/m² | - |
| 1787923826 | 22.78° C | 96% | 1019.3 hPa | 0 mm | - | 180 W/m² | - |
| 1787923521 | 22.78° C | 98% | 1019.3 hPa | 0 mm | - | 142 W/m² | - |
| 1787923217 | 22.78° C | 99% | 1019.5 hPa | 0 mm | - | 145 W/m² | - |
| 1787922913 | 22.22° C | 99% | 1019.3 hPa | 0 mm | - | 153 W/m² | - |
| 1787922611 | 22.22° C | 99% | 1019.3 hPa | 0 mm | - | 131 W/m² | - |
| 1787922311 | 22.22° C | 99% | 1019.1 hPa | 0 mm | - | 110 W/m² | - |
| 1787922008 | 22.22° C | 99% | 1019.1 hPa | 0 mm | - | 91 W/m² | - |
| 1787921703 | 22.22° C | 99% | 1019.3 hPa | 0 mm | - | 88 W/m² | - |
| 1787921403 | 22.22° C | 99% | 1019.3 hPa | 0 mm | - | 93 W/m² | - |
| 1787921098 | 22.22° C | 99% | 1019 hPa | 0 mm | - | 104 W/m² | - |
| 1787920798 | 21.67° C | 99% | 1019.1 hPa | 0 mm | - | 105 W/m² | - |
| 1787920493 | 21.67° C | 99% | 1019.3 hPa | 0 mm | - | 90 W/m² | - |
| 1787920190 | 21.67° C | 99% | 1019.3 hPa | 0 mm | - | 85 W/m² | - |
| 1787919885 | 21.67° C | 99% | 1018.9 hPa | 0 mm | - | 66 W/m² | - |
* Rain latest hour (hover to see other rain measurements)
** Current wind speed in m/s (hover to see current wind gust speed)